When you browse on this site, cookies collect data to enhance your experience and personalize the content and advertising you see.
Visit our Privacy Policy to learn more. By continuing to use the site, you agree to this use of cookies and data.
  • In Hungary
  • List of Countries
  • For 7 days
  • Water Temperature
  • Satellite Maps
  • Weather Map
  • News
  • Weather Widgets
  • user-avatar
    Login

    Hourly Weather Salavat

    Today, 21 January, Monday

    Time Temperature Precipitation Wind Pressure Humidity
    00:00 -15°C° 0 mm 1 mps 749 mmHg 96%
    01:00 -15°C° 0 mm 1 mps 750 mmHg 96%
    02:00 -15°C° 0 mm 1 mps 750 mmHg 96%
    03:00 -17°C° 0 mm 2 mps 750 mmHg 96%
    04:00 -17°C° 0 mm 2 mps 751 mmHg 96%
    05:00 -17°C° 0 mm 2 mps 751 mmHg 96%
    06:00 -18°C° 0 mm 3 mps 751 mmHg 96%
    07:00 -19°C° 0 mm 3 mps 752 mmHg 96%
    08:00 -18°C° 0 mm 3 mps 752 mmHg 95%
    09:00 -19°C° 0 mm 4 mps 752 mmHg 94%
    10:00 -18°C° 0 mm 4 mps 752 mmHg 94%
    11:00 -19°C° 0 mm 5 mps 752 mmHg 93%
    12:00 -18°C° 0 mm 5 mps 752 mmHg 92%
    13:00 -17°C° 0 mm 6 mps 752 mmHg 91%
    14:00 -17°C° 0 mm 6 mps 752 mmHg 91%
    15:00 -18°C° 0 mm 6 mps 751 mmHg 91%
    16:00 -18°C° 0 mm 6 mps 751 mmHg 91%
    17:00 -18°C° 0 mm 6 mps 751 mmHg 91%
    18:00 -20°C° 0 mm 6 mps 751 mmHg 92%
    19:00 -20°C° 0 mm 6 mps 751 mmHg 92%
    20:00 -20°C° 0 mm 6 mps 750 mmHg 92%
    21:00 -18°C° 0 mm 6 mps 750 mmHg 92%
    22:00 -18°C° 0 mm 6 mps 749 mmHg 91%
    23:00 -18°C° 0.1 mm 7 mps 748 mmHg 90%

    Tomorrow, 22 January, Tuesday

    Time Temperature Precipitation Wind Pressure Humidity
    00:00 -18°C° 0.1 mm 7 mps 748 mmHg 89%
    01:00 -18°C° 0.1 mm 7 mps 747 mmHg 89%
    02:00 -17°C° 0.5 mm 8 mps 746 mmHg 89%
    03:00 -17°C° 0.5 mm 8 mps 745 mmHg 90%
    04:00 -16°C° 0.5 mm 8 mps 745 mmHg 91%
    05:00 -15°C° 0.3 mm 8 mps 744 mmHg 91%
    06:00 -15°C° 0.3 mm 8 mps 743 mmHg 91%
    07:00 -13°C° 0.3 mm 8 mps 743 mmHg 90%
    08:00 -12°C° 0.4 mm 8 mps 742 mmHg 91%
    09:00 -12°C° 0.4 mm 8 mps 742 mmHg 91%
    10:00 -11°C° 0.4 mm 8 mps 742 mmHg 91%
    11:00 -9°C° 0.5 mm 7 mps 742 mmHg 92%
    12:00 -8°C° 0.5 mm 6 mps 742 mmHg 92%
    13:00 -6°C° 0.5 mm 6 mps 741 mmHg 93%
    14:00 -8°C° 0.5 mm 5 mps 742 mmHg 92%
    15:00 -10°C° 0.5 mm 5 mps 742 mmHg 92%
    16:00 -11°C° 0.5 mm 4 mps 742 mmHg 91%
    17:00 -13°C° 0 mm 3 mps 743 mmHg 92%
    18:00 -15°C° 0 mm 3 mps 743 mmHg 93%
    19:00 -16°C° 0 mm 2 mps 744 mmHg 94%
    20:00 -17°C° 0 mm 2 mps 745 mmHg 95%
    21:00 -18°C° 0 mm 2 mps 746 mmHg 95%
    22:00 -19°C° 0 mm 2 mps 747 mmHg 95%
    23:00 -21°C° 0 mm 2 mps 747 mmHg 96%

    Day after tomorrow, 23 January, Wednesday

    Time Temperature Precipitation Wind Pressure Humidity
    00:00 -23°C° 0 mm 2 mps 748 mmHg 96%
    01:00 -22°C° 0 mm 1 mps 749 mmHg 97%
    02:00 -22°C° 0 mm 1 mps 749 mmHg 97%
    03:00 -23°C° 0 mm 1 mps 750 mmHg 97%
    04:00 -23°C° 0 mm 1 mps 750 mmHg 97%
    05:00 -24°C° 0 mm 1 mps 751 mmHg 97%
    06:00 -24°C° 0 mm 1 mps 751 mmHg 97%
    07:00 -25°C° 0 mm 1 mps 752 mmHg 97%
    08:00 -24°C° 0 mm 1 mps 752 mmHg 96%
    09:00 -24°C° 0 mm 1 mps 753 mmHg 96%
    10:00 -27°C° 0 mm 2 mps 753 mmHg 95%
    11:00 -26°C° 0 mm 2 mps 754 mmHg 95%
    12:00 -24°C° 0 mm 2 mps 754 mmHg 94%
    13:00 -23°C° 0 mm 2 mps 754 mmHg 93%
    14:00 -23°C° 0 mm 2 mps 755 mmHg 93%
    15:00 -24°C° 0 mm 2 mps 755 mmHg 94%
    16:00 -24°C° 0 mm 2 mps 756 mmHg 94%
    17:00 -24°C° 0 mm 2 mps 756 mmHg 95%
    18:00 -24°C° 0 mm 2 mps 757 mmHg 95%
    19:00 -25°C° 0 mm 2 mps 757 mmHg 95%
    20:00 -25°C° 0 mm 2 mps 758 mmHg 96%
    21:00 -26°C° 0 mm 2 mps 758 mmHg 96%
    22:00 -26°C° 0 mm 2 mps 758 mmHg 96%
    23:00 -26°C° 0 mm 2 mps 759 mmHg 96%

    24 January, Thursday

    Time Temperature Precipitation Wind Pressure Humidity
    00:00 -27°C° 0 mm 2 mps 759 mmHg 96%
    01:00 -27°C° 0 mm 2 mps 759 mmHg 97%
    02:00 -29°C° 0 mm 3 mps 760 mmHg 97%
    03:00 -29°C° 0 mm 3 mps 760 mmHg 97%
    04:00 -29°C° 0 mm 3 mps 760 mmHg 97%
    05:00 -29°C° 0 mm 3 mps 760 mmHg 96%
    06:00 -29°C° 0 mm 3 mps 760 mmHg 96%
    07:00 -29°C° 0 mm 3 mps 760 mmHg 96%
    08:00 -27°C° 0 mm 3 mps 760 mmHg 96%
    09:00 -26°C° 0 mm 3 mps 760 mmHg 95%
    10:00 -26°C° 0 mm 3 mps 760 mmHg 94%
    11:00 -24°C° 0 mm 3 mps 760 mmHg 93%
    12:00 -24°C° 0 mm 4 mps 760 mmHg 92%
    13:00 -22°C° 0 mm 4 mps 760 mmHg 91%
    14:00 -22°C° 0 mm 4 mps 759 mmHg 90%
    15:00 -22°C° 0 mm 4 mps 759 mmHg 90%
    16:00 -20°C° 0 mm 4 mps 758 mmHg 90%
    17:00 -20°C° 0 mm 4 mps 758 mmHg 89%
    18:00 -20°C° 0 mm 4 mps 758 mmHg 89%
    19:00 -20°C° 0 mm 4 mps 757 mmHg 89%
    20:00 -20°C° 0 mm 5 mps 757 mmHg 88%
    21:00 -20°C° 0 mm 5 mps 756 mmHg 87%
    22:00 -19°C° 0 mm 5 mps 756 mmHg 86%
    23:00 -20°C° 0 mm 6 mps 755 mmHg 86%

    25 January, Friday

    Time Temperature Precipitation Wind Pressure Humidity
    00:00 -18°C° 0 mm 6 mps 755 mmHg 86%
    01:00 -19°C° 0 mm 7 mps 754 mmHg 86%
    02:00 -17°C° 0.1 mm 6 mps 754 mmHg 87%
    03:00 -17°C° 0.1 mm 6 mps 753 mmHg 88%
    04:00 -17°C° 0.1 mm 6 mps 753 mmHg 90%
    05:00 -17°C° 0.1 mm 6 mps 753 mmHg 90%
    06:00 -17°C° 0.1 mm 5 mps 753 mmHg 91%
    07:00 -17°C° 0.1 mm 5 mps 752 mmHg 92%
    08:00 -16°C° 0.1 mm 4 mps 753 mmHg 92%
    09:00 -16°C° 0.1 mm 4 mps 753 mmHg 92%
    10:00 -15°C° 0.1 mm 3 mps 753 mmHg 93%
    11:00 -15°C° 0.1 mm 3 mps 753 mmHg 92%
    12:00 -15°C° 0.1 mm 3 mps 753 mmHg 92%
    13:00 -13°C° 0.1 mm 2 mps 752 mmHg 91%
    14:00 -14°C° 0 mm 2 mps 753 mmHg 92%
    15:00 -13°C° 0 mm 1 mps 753 mmHg 93%
    16:00 -14°C° 0 mm 1 mps 753 mmHg 93%
    17:00 -16°C° 0 mm 1 mps 753 mmHg 95%
    18:00 -17°C° 0 mm 1 mps 754 mmHg 96%
    19:00 -19°C° 0 mm 1 mps 754 mmHg 97%
    20:00 -20°C° 0 mm 1 mps 754 mmHg 97%
    21:00 -20°C° 0 mm 1 mps 754 mmHg 98%
    22:00 -21°C° 0 mm 1 mps 755 mmHg 98%
    23:00 -21°C° 0 mm 1 mps 755 mmHg 97%

    26 January, Saturday

    Time Temperature Precipitation Wind Pressure Humidity
    00:00 -22°C° 0 mm 1 mps 755 mmHg 97%
    01:00 -22°C° 0 mm 1 mps 755 mmHg 96%
    02:00 -23°C° 0 mm 1 mps 755 mmHg 96%
    03:00 -23°C° 0 mm 1 mps 755 mmHg 95%
    04:00 -23°C° 0 mm 1 mps 756 mmHg 95%
    05:00 -24°C° 0 mm 1 mps 756 mmHg 95%
    06:00 -27°C° 0 mm 2 mps 756 mmHg 95%
    07:00 -27°C° 0 mm 2 mps 756 mmHg 95%
    08:00 -26°C° 0 mm 2 mps 756 mmHg 94%
    09:00 -25°C° 0 mm 2 mps 756 mmHg 93%
    10:00 -25°C° 0 mm 2 mps 757 mmHg 93%
    11:00 -23°C° 0 mm 2 mps 756 mmHg 91%
    12:00 -21°C° 0 mm 2 mps 756 mmHg 90%
    13:00 -19°C° 0 mm 2 mps 756 mmHg 89%
    14:00 -19°C° 0 mm 2 mps 756 mmHg 90%
    15:00 -20°C° 0 mm 2 mps 756 mmHg 91%
    16:00 -20°C° 0 mm 2 mps 756 mmHg 91%
    17:00 -21°C° 0 mm 2 mps 756 mmHg 91%
    18:00 -21°C° 0 mm 2 mps 756 mmHg 90%
    19:00 -23°C° 0 mm 2 mps 756 mmHg 90%
    20:00 -23°C° 0 mm 2 mps 756 mmHg 89%
    21:00 -20°C° 0 mm 1 mps 756 mmHg 88%
    22:00 -21°C° 0 mm 1 mps 756 mmHg 88%
    23:00 -21°C° 0 mm 1 mps 755 mmHg 86%
    Show more